sat.trackr.live / text

‹ back to catalog

STARLINK-37734

NORAD 69305 · 2026-119K

PAYLOAD ACTIVE UNKNOWN

§ Identity

Operator
Country
US
Launch date
2026-05-30
Launch site
AFWTR
Launch vehicle
Mass (kg)
RCS (m²)

Purposes: comms

External: N2YO · Heavens-Above · Gunter

§ Orbital elements

Epoch: 2026-09-18T20:59:34.376352Z

Period
93.91 min
Inclination
97.2837°
Eccentricity
0.0001123
Mean motion
15.33435396 rev/d
Perigee alt
464.8 km
Apogee alt
466.3 km
Semi-major
6,843.7 km
B*
3.4686e-4
RAAN
286.6256°
Arg perigee
86.9495°
Mean anomaly
273.1876°
Rev number
1,841

§ Raw data

STARLINK-377341 69305U 26119K   26261.87470343  .00011136  00000+0  34686-3 0  99962 69305  97.2837 286.6256 0001123  86.9495 273.1876 15.33435396 18414

JSON: /api/v1/satellites/69305 · /tle

For live sub-satellite position, see the globe view (requires WebGL).

§ Visibility from observer

Set your observer location to see the next 7 days of passes ≥ 10°. The values pass through the URL so the page stays shareable.

No JS? Fill the form by hand. The geolocation button needs JavaScript.